Location: Artiguedieu
(43.5000°N, 0.5454°E)
Time: 23:53:24
(UTC+00:00)

Transit 2A Rocket - Pass Details

Date: 01 August 2021
Orbit: 586 x 916 km, 66.7° (Epoch: 19 September)

Event Time Altitude Azimuth Distance (km) Brightness Sun altitude
Rises 20:46:37 0° 338° (NNW) 3,217 9.5 -13.8°
Reaches altitude 10° 20:49:49 10° 358° (N) 2,357 8.2 -14.3°
Maximum altitude 20:53:20 17° 39° (NE) 1,970 7.2 -14.7°
Drops below altitude 10° 20:57:00 10° 79° (E) 2,486 7.3 -15.2°
Enters shadow 20:57:41 - 84° (E) 2,656 7.4 -15.3°
Sets 21:00:29 0° 98° (E) 3,472 - -15.7°
